TimeMDT,TemperatureF,Dew PointF,Humidity,Sea Level PressureIn,VisibilityMPH,Wind Direction,Wind SpeedMPH,Gust SpeedMPH,PrecipitationIn,Events,Conditions,WindDirDegrees,DateUTC
12:53 AM,42.1,28.0,58,30.05,10.0,ESE,11.5,-,N/A,,Clear,110,2013-10-20 06:53:00
1:53 AM,37.9,28.9,70,30.04,10.0,ESE,6.9,-,N/A,,Clear,110,2013-10-20 07:53:00
2:53 AM,39.0,28.0,65,30.02,10.0,ESE,9.2,-,N/A,,Clear,110,2013-10-20 08:53:00
3:53 AM,35.1,28.0,76,30.02,10.0,SE,3.5,-,N/A,,Clear,130,2013-10-20 09:53:00
4:53 AM,37.9,27.0,65,29.99,10.0,SE,6.9,-,N/A,,Clear,130,2013-10-20 10:53:00
5:53 AM,35.1,28.0,76,30.01,10.0,Calm,Calm,-,N/A,,Clear,0,2013-10-20 11:53:00
6:53 AM,33.1,28.0,82,30.04,10.0,Calm,Calm,-,N/A,,Clear,0,2013-10-20 12:53:00
7:53 AM,33.1,28.0,82,30.05,10.0,ENE,4.6,-,N/A,,Clear,70,2013-10-20 13:53:00
8:53 AM,39.0,28.9,67,30.07,10.0,ESE,5.8,-,N/A,,Clear,120,2013-10-20 14:53:00
9:53 AM,43.0,28.9,58,30.06,10.0,South,5.8,-,N/A,,Clear,180,2013-10-20 15:53:00
10:53 AM,48.0,30.0,50,30.03,10.0,Calm,Calm,-,N/A,,Clear,0,2013-10-20 16:53:00
11:53 AM,50.0,28.9,44,30.01,10.0,Calm,Calm,-,N/A,,Clear,0,2013-10-20 17:53:00
12:53 PM,52.0,26.1,37,29.98,10.0,Calm,Calm,-,N/A,,Clear,0,2013-10-20 18:53:00
1:53 PM,55.0,25.0,31,29.95,10.0,Variable,3.5,-,N/A,,Clear,0,2013-10-20 19:53:00
2:53 PM,57.0,26.1,30,29.93,10.0,NW,5.8,-,N/A,,Clear,320,2013-10-20 20:53:00
3:53 PM,57.0,26.1,30,29.94,10.0,WNW,6.9,-,N/A,,Clear,300,2013-10-20 21:53:00
4:53 PM,57.0,24.1,28,29.92,10.0,NNW,6.9,-,N/A,,Clear,330,2013-10-20 22:53:00
5:53 PM,55.9,28.9,36,29.93,10.0,West,4.6,-,N/A,,Clear,280,2013-10-20 23:53:00
6:53 PM,52.0,28.9,41,29.95,10.0,NW,3.5,-,N/A,,Clear,320,2013-10-21 00:53:00
7:53 PM,45.0,30.9,58,29.99,10.0,North,3.5,-,N/A,,Clear,350,2013-10-21 01:53:00
8:53 PM,44.1,33.1,65,29.99,10.0,Calm,Calm,-,N/A,,Mostly Cloudy,0,2013-10-21 02:53:00
9:53 PM,45.0,32.0,60,29.99,10.0,Calm,Calm,-,N/A,,Overcast,0,2013-10-21 03:53:00
10:53 PM,45.0,30.9,58,29.98,10.0,East,5.8,-,N/A,,Mostly Cloudy,80,2013-10-21 04:53:00
11:53 PM,41.0,33.1,73,30.00,10.0,Calm,Calm,-,N/A,,Partly Cloudy,0,2013-10-21 05:53:00